Dewpoint
69 70 71 72 72 72 71 71 72 72 73 72 72 72 72 73 73 74 74 74 74 74 74 74 74 74 73 72 72 72 72 73 74 74 74 74 74 74 74 74 74 74 74 74 75 75 75 74 72 70 69 69 68 68 68 69 69 68 67 69 70 70 70 72 73 73 72 72 72 72 73 73 73 73 72 72 72 72 72 71 71 72 72 72 72 72 72 71 71 71 71 71 72 72 72 72 72 72 73 74 74 74 74
69 70 71 72 72 72 71 71 71 72 72 72 72 72 72 73 73 73 74 74 74 74 73 73 73 73 73 72 72 73 73 73 74 74 74 74 74 74 74 74 74 74 74 74 74 75 74 73 71 70 68 68 68 68 68 68 68 68 67 68 69 70 70 72 73 74 72 72 72 73 73 73 73 73 72 72 72 72 72 71 71 71 72 72 72 72 72 71 71 71 71 71 72 72 72 72 72 72 73 74 74 74 74
70 71 71 72 72 72 71 71 71 72 72 72 72 72 73 73 73 73 74 74 74 73 73 72 72 72 72 72 72 73 73 74 74 74 74 74 74 74 74 73 73 74 74 74 74 74 74 72 71 69 69 68 68 68 68 68 67 67 66 67 68 69 70 72 73 74 73 73 73 73 73 73 73 73 72 72 72 72 72 71 71 71 71 72 72 72 72 72 72 72 71 71 72 72 72 72 72 72 73 73 74 74 73
71 71 71 72 72 72 72 72 72 72 72 72 72 72 72 72 72 73 73 73 73 73 73 72 72 71 71 72 72 73 73 74 74 74 74 74 74 74 74 74 73 74 74 74 74 73 72 72 70 69 69 68 68 68 68 68 68 67 66 67 68 69 70 72 73 74 73 73 73 73 73 73 73 73 72 72 72 72 72 71 71 71 71 71 72 72 72 72 72 72 72 71 71 72 72 72 72 73 73 73 73 73 73
71 71 72 72 72 72 72 72 72 72 72 72 72 72 72 72 72 72 72 73 73 73 73 72 72 72 72 72 72 73 73 74 74 74 74 74 74 74 74 74 74 74 74 74 74 73 71 71 70 69 69 68 68 67 68 69 69 68 66 67 68 69 71 72 73 74 73 73 73 73 73 73 73 73 72 72 72 72 72 71 71 71 71 71 71 72 72 72 72 72 72 71 71 71 72 72 72 73 73 73 73 73 73
72 71 72 72 72 72 72 72 72 72 72 72 72 72 72 72 72 72 72 72 73 73 73 73 73 72 72 73 73 73 74 74 74 74 74 74 74 74 74 74 74 74 74 74 74 73 71 70 68 68 68 68 68 67 68 69 69 68 66 66 67 69 71 72 73 74 74 74 73 73 73 73 72 72 72 72 72 72 72 72 71 71 71 71 71 72 72 72 72 72 72 71 71 71 72 72 72 73 73 73 72 72 72
71 71 72 72 72 72 72 72 72 72 72 72 72 72 72 72 72 72 72 72 72 72 73 73 73 73 73 73 73 73 73 73 73 73 73 73 74 74 74 74 74 74 74 74 73 72 71 68 68 67 67 67 67 67 67 68 68 67 66 66 68 69 70 71 72 73 74 74 74 73 73 72 72 72 72 72 72 72 72 72 71 71 71 71 71 72 72 72 72 72 72 71 71 71 71 72 72 72 72 72 72 72 72
71 71 72 72 72 72 72 72 72 72 72 72 72 72 72 72 72 72 72 72 72 72 72 72 72 73 73 73 73 73 73 73 73 72 72 73 73 73 74 74 74 74 74 74 73 73 72 69 68 67 67 67 67 66 66 67 67 66 65 65 67 69 70 71 72 73 74 74 74 73 73 72 72 72 72 73 73 72 72 72 71 71 71 71 71 72 72 72 71 71 71 71 71 71 71 71 72 72 72 72 72 72 72
71 71 72 72 72 72 72 72 72 72 72 72 72 72 72 72 72 72 72 72 72 72 72 72 72 72 72 73 73 73 72 72 72 72 72 72 72 73 74 74 74 74 74 74 73 73 73 70 68 67 67 67 67 67 67 66 66 66 65 65 67 68 70 71 72 73 74 74 74 74 73 72 72 72 73 73 73 73 72 72 72 71 71 71 71 71 71 71 71 71 71 71 71 71 71 71 72 72 72 72 72 72 72
71 72 72 72 72 72 72 72 72 72 71 71 71 71 72 72 72 72 72 72 72 72 72 72 72 72 72 72 72 72 72 72 72 72 72 72 72 73 74 74 74 73 73 73 73 73 73 70 68 67 67 67 67 67 68 67 66 66 65 66 68 69 70 71 72 73 74 74 74 74 73 73 73 73 73 73 73 73 72 72 72 71 71 71 71 71 71 71 71 71 71 71 71 71 71 71 71 72 72 72 72 72 72
72 72 72 72 72 72 72 72 72 72 72 71 71 72 72 72 72 72 72 72 72 72 72 72 72 72 72 72 72 72 72 72 72 72 72 72 72 73 74 73 73 73 73 73 73 73 73 71 69 68 67 67 67 68 68 67 67 68 67 67 68 69 70 71 72 72 74 74 74 74 74 73 73 73 73 73 73 73 72 72 72 72 71 71 71 71 71 71 71 71 71 70 71 71 71 72 72 72 72 72 72 72 72
72 72 72 72 72 72 72 72 72 72 72 72 72 72 72 72 72 71 71 71 71 71 71 71 71 72 72 72 72 72 72 72 72 72 72 72 73 73 74 73 73 73 73 72 72 72 72 71 69 68 68 67 67 68 67 67 67 67 66 68 69 70 70 71 72 72 73 74 74 74 74 74 73 73 73 73 73 72 72 72 72 72 72 72 71 71 71 71 71 70 70 70 70 71 71 72 72 72 72 72 72 72 72
72 72 72 72 72 72 72 72 72 72 72 72 72 72 72 72 71 71 71 70 70 70 70 70 71 71 72 72 72 72 72 72 72 72 72 73 73 73 73 73 73 72 72 72 72 72 70 70 69 68 68 68 68 67 68 67 67 67 67 69 70 70 70 71 72 72 73 74 74 74 74 74 74 73 73 73 73 72 72 72 72 72 72 72 71 71 71 71 71 70 70 70 70 70 71 71 72 72 72 72 72 72 72
72 72 71 71 72 72 72 72 72 72 72 72 72 72 72 72 71 71 71 71 70 70 70 70 71 71 72 72 72 72 72 72 73 73 73 73 73 73 73 73 72 72 72 72 71 70 70 69 69 68 68 68 68 68 68 68 67 67 68 70 70 71 71 71 72 72 73 74 74 74 74 74 73 73 73 73 72 72 72 72 72 72 72 72 71 71 71 71 70 70 70 69 69 69 70 71 71 72 71 71 72 72 72
71 71 71 71 71 71 72 72 72 72 72 71 72 72 72 71 71 71 71 71 71 71 71 71 71 71 72 72 72 72 72 72 73 73 73 73 73 73 73 72 72 72 72 71 70 69 69 69 69 69 68 68 68 68 68 68 68 68 70 70 71 71 71 71 72 72 73 74 74 74 74 74 73 73 73 73 72 72 72 72 72 72 72 72 71 71 71 70 70 70 70 69 69 69 69 70 71 71 71 71 71 72 72
70 70 70 70 71 71 71 71 72 72 71 71 71 71 71 71 71 71 71 71 71 71 71 71 71 71 72 72 72 72 72 72 72 72 72 72 72 72 72 72 72 72 71 70 68 68 69 69 69 68 69 68 68 68 68 68 68 69 70 71 71 71 71 71 72 72 73 74 74 74 73 73 73 73 73 73 72 72 72 72 72 72 72 71 71 71 70 70 70 70 70 69 69 69 69 70 70 71 71 71 71 72 72
68 68 69 70 70 71 71 71 71 71 71 71 71 71 71 71 71 71 71 71 71 71 71 71 71 71 72 72 72 72 70 70 71 71 71 72 72 72 72 72 72 71 71 69 68 68 69 69 68 68 68 68 68 68 68 68 68 69 71 71 71 72 71 71 71 72 73 74 73 73 73 73 73 73 73 72 72 72 72 72 72 72 71 71 71 70 70 70 70 70 70 69 69 69 69 69 70 71 71 71 71 71 72
68 68 69 69 70 70 71 71 71 71 71 71 71 71 71 71 71 71 71 71 70 70 70 70 71 71 72 72 72 71 70 69 69 70 70 71 71 71 71 71 71 70 70 69 68 67 68 68 68 68 68 68 68 68 68 68 69 70 71 71 72 72 71 71 72 72 73 73 73 73 73 73 73 73 72 72 72 72 72 72 72 71 71 71 71 70 70 70 70 70 70 69 69 69 69 69 70 70 71 71 71 71 71
67 68 68 69 69 69 70 70 70 71 71 71 71 70 71 71 71 71 71 71 70 70 70 70 71 71 71 72 71 70 69 69 69 69 69 69 69 69 69 70 70 70 69 68 67 67 67 68 68 68 68 68 68 68 69 68 69 70 71 71 71 72 71 71 72 72 73 73 73 73 73 73 73 72 72 72 72 72 72 72 72 71 71 71 71 70 70 70 70 69 69 69 69 69 69 69 70 70 71 71 71 71 71
66 67 68 68 68 68 69 69 70 70 70 71 70 70 70 70 70 70 71 71 70 70 70 70 71 71 71 71 70 69 69 69 69 69 69 68 68 68 69 69 70 70 70 69 68 68 68 68 68 68 68 68 68 68 68 68 69 70 70 71 71 71 71 71 72 72 73 73 73 73 73 73 73 72 72 72 72 72 72 72 71 71 71 71 71 70 70 70 70 69 69 69 69 69 69 69 70 70 71 71 71 71 71
65 65 66 66 67 67 68 68 69 69 70 70 70 69 69 69 69 70 70 70 70 70 70 70 70 70 69 69 68 68 69 69 69 69 69 68 68 68 69 69 69 70 70 70 70 69 69 68 68 68 68 68 68 68 68 68 69 70 70 70 71 71 71 71 72 72 72 73 73 73 73 73 72 72 72 72 72 72 72 71 71 71 71 71 71 71 70 70 70 69 69 69 69 69 69 69 70 70 71 71 71 71 71
64 64 64 65 65 66 66 66 67 68 68 69 69 68 68 68 68 68 68 68 68 68 68 69 68 68 68 67 68 68 68 68 68 68 68 68 68 68 68 68 69 69 70 70 70 69 69 69 68 68 68 68 68 68 68 68 69 69 70 70 70 70 70 71 72 72 72 73 73 73 73 72 72 72 72 72 72 72 72 71 71 71 71 71 71 71 70 70 69 69 69 69 69 69 69 69 70 70 70 70 71 71 71
65 65 65 65 65 65 65 65 66 67 67 68 68 68 68 68 68 67 67 67 67 66 66 67 67 67 67 67 68 68 68 68 68 68 68 68 68 68 68 68 68 68 69 69 69 69 69 68 68 68 68 68 68 68 68 68 69 69 69 70 70 70 70 71 72 72 72 72 73 73 73 72 72 72 72 72 72 72 72 72 72 71 71 71 71 71 71 70 70 69 69 69 69 69 69 69 69 70 70 70 70 70 71
65 65 65 65 65 65 65 66 66 67 67 67 67 67 68 68 68 67 67 67 66 66 65 65 66 67 67 67 67 68 68 68 68 68 68 68 68 67 67 67 67 67 68 68 68 68 68 68 68 68 68 68 68 68 68 68 68 69 69 69 69 70 70 71 71 72 72 72 72 73 73 72 72 72 72 72 72 72 72 72 72 72 72 72 71 71 71 70 70 70 69 70 69 69 69 69 69 69 70 70 70 70 70
65 65 65 65 65 65 66 66 66 67 67 67 67 67 67 67 67 67 67 67 66 66 65 65 66 66 66 66 66 67 67 68 68 68 68 68 67 67 67 66 66 66 67 67 68 68 68 68 68 68 67 67 68 68 67 68 68 68 69 69 69 69 70 70 71 72 72 72 72 72 73 72 72 72 72 72 72 72 72 72 72 72 72 72 72 71 71 71 70 70 69 70 70 69 69 69 69 69 69 69 70 70 70
64 64 64 65 65 65 65 66 66 66 66 66 66 66 66 66 66 66 66 66 66 66 65 65 65 64 64 64 65 65 66 67 67 67 67 67 67 67 67 66 66 66 66 66 67 67 68 68 68 67 67 67 67 67 67 67 68 68 68 68 68 69 69 70 71 72 72 72 72 72 72 72 72 72 72 72 72 72 72 72 72 72 72 72 72 71 71 71 70 70 69 70 70 70 70 69 69 69 69 69 69 69 70
63 63 63 64 64 64 64 64 65 65 65 65 65 64 64 65 65 65 65 65 65 65 64 64 63 63 63 63 63 64 65 65 66 66 66 66 66 66 66 65 65 65 65 65 66 66 67 67 67 67 67 66 66 67 67 67 68 68 68 68 68 68 69 70 71 72 72 72 72 72 72 72 72 72 72 72 72 72 72 72 72 72 72 72 71 71 71 71 70 70 70 69 69 70 70 70 70 69 69 69 69 69 69
63 63 63 63 63 63 63 63 63 64 64 63 63 63 63 63 64 64 64 64 63 63 63 62 62 62 62 63 63 63 63 64 64 65 65 65 65 65 65 65 64 64 64 65 65 65 66 67 67 67 67 67 66 66 67 67 67 68 68 68 68 68 69 69 70 71 72 72 72 72 71 72 72 72 72 72 72 72 72 72 72 72 72 72 71 71 71 71 70 70 70 69 69 69 70 70 69 69 70 70 69 69 69
62 62 62 62 62 62 63 63 63 63 64 63 62 62 63 63 63 63 63 63 63 63 63 62 62 62 61 62 62 62 63 63 63 63 64 64 64 64 64 64 64 64 64 64 64 64 65 65 66 67 67 67 67 67 67 67 67 67 68 68 68 68 68 69 70 71 72 72 72 71 71 71 71 72 72 72 72 72 72 72 72 72 72 71 71 71 71 71 70 70 70 69 69 69 69 69 69 69 70 70 70 70 69
61 61 60 60 60 61 61 61 62 63 63 62 62 62 62 63 63 63 63 63 62 62 62 61 61 60 59 60 60 60 62 63 63 63 63 63 63 63 63 63 63 63 63 63 64 64 64 65 65 66 66 67 67 67 67 67 67 67 67 68 68 68 68 69 69 70 71 72 72 71 71 71 71 71 71 72 72 72 72 72 72 72 71 71 71 71 71 71 70 70 70 70 69 69 69 69 69 69 69 69 70 70 70
60 59 59 59 59 59 60 60 61 61 61 62 62 62 62 62 62 62 62 62 62 61 61 61 60 60 59 59 59 60 61 61 62 62 62 62 62 63 63 63 63 63 63 63 63 64 65 65 65 65 66 66 67 67 67 67 67 67 67 67 67 68 68 68 69 70 71 71 71 71 71 70 70 71 71 71 72 72 72 72 72 72 71 71 71 71 71 71 70 70 70 70 70 69 69 69 69 69 69 69 69 69 70
59 58 58 58 59 59 59 59 60 61 61 62 62 62 62 62 62 62 62 62 61 61 61 61 60 60 60 60 60 59 60 60 60 60 60 61 61 61 62 63 63 63 63 63 63 63 64 65 65 66 66 67 67 67 67 67 67 67 67 67 67 67 68 68 69 69 70 71 71 71 71 70 70 70 71 71 72 72 72 72 72 72 71 71 71 71 71 71 70 70 69 70 70 70 70 69 69 69 69 69 69 69 69
59 59 58 59 59 59 59 59 59 59 60 61 62 62 62 62 62 62 62 62 62 61 61 61 61 61 60 60 60 60 59 59 59 59 59 59 60 60 61 62 62 63 63 63 63 64 64 65 65 65 66 67 67 67 67 67 67 67 67 67 67 67 67 68 68 69 70 71 71 71 71 70 70 70 71 71 72 72 72 72 72 72 71 71 71 71 71 71 70 70 69 70 70 70 70 70 69 69 69 69 69 69 69
59 59 59 58 59 59 59 59 59 59 59 59 60 61 61 61 62 62 62 61 60 59 59 59 59 59 60 60 60 59 59 59 59 59 59 59 59 59 60 60 61 62 62 63 63 64 65 65 65 66 66 66 67 67 68 68 68 67 67 66 66 66 67 67 68 68 69 70 70 71 70 70 70 70 70 71 71 72 72 72 72 72 71 71 71 71 71 70 70 69 69 69 70 70 70 70 69 69 69 69 69 69 69
59 59 59 59 58 59 59 59 59 59 59 59 59 59 59 59 59 60 60 60 60 59 59 58 58 59 59 59 59 60 60 59 59 59 59 59 59 59 58 59 60 61 61 62 63 64 65 66 66 66 67 67 67 67 68 68 68 68 67 66 65 65 66 66 67 68 68 69 69 70 70 70 70 70 70 70 71 71 72 72 72 72 72 71 71 71 71 70 70 69 69 69 69 70 70 70 69 69 69 69 69 69 68
59 59 59 59 59 59 59 59 59 59 59 59 59 58 57 58 58 59 60 60 60 60 59 59 59 60 60 61 61 61 61 61 60 60 59 59 59 58 58 59 59 60 61 61 63 64 65 66 66 67 67 67 67 68 68 68 68 68 68 67 66 65 64 65 66 67 67 68 68 69 70 70 70 70 70 70 71 71 71 71 72 72 72 71 71 71 71 70 70 69 69 69 69 69 70 69 69 69 69 69 69 69 69
59 59 59 59 59 59 59 59 59 59 58 59 59 59 58 59 59 59 60 60 60 60 61 61 61 62 63 63 63 63 62 62 62 62 61 61 60 60 59 59 59 59 60 61 62 63 64 65 66 67 67 67 68 68 68 68 68 68 68 68 67 66 65 65 65 66 66 67 67 68 68 69 70 70 71 71 71 71 71 71 71 71 72 71 71 71 71 71 70 70 69 69 69 69 69 69 69 69 69 69 69 69 69
58 59 59 59 59 58 59 59 59 58 58 58 59 59 59 59 59 59 60 60 60 60 61 62 62 62 63 63 63 63 63 63 63 63 62 62 61 60 60 60 60 61 61 61 61 62 62 63 65 67 67 68 68 68 67 67 67 67 67 67 67 67 66 65 65 65 65 65 66 66 67 68 68 69 70 71 71 71 71 71 71 71 71 71 71 71 71 71 71 70 70 70 70 69 69 69 69 69 69 69 69 69 69
57 58 59 59 59 59 59 59 58 57 57 58 58 59 59 59 59 59 59 59 60 60 61 61 61 62 62 62 62 63 63 63 63 63 62 62 61 61 60 61 62 62 63 63 63 62 62 62 63 65 66 67 67 67 67 66 66 66 66 66 66 66 66 66 66 65 65 65 65 65 66 66 67 68 69 69 70 70 70 70 70 70 71 71 71 71 71 71 71 71 71 70 70 70 69 69 69 69 69 69 69 69 69
54 56 58 58 59 59 59 58 57 56 57 58 58 58 57 58 59 59 59 59 60 60 60 61 61 61 61 62 62 62 62 62 62 61 61 61 61 61 61 61 62 63 63 64 64 64 63 63 63 63 64 65 66 67 67 66 65 65 65 65 65 65 66 66 66 65 65 65 65 65 65 65 66 66 68 68 69 69 69 69 70 70 70 70 71 71 71 71 71 71 71 71 71 70 70 69 69 69 69 69 70 70 69
52 54 55 56 57 58 59 57 56 56 57 57 58 57 56 57 58 59 59 59 60 60 59 60 61 61 61 61 61 60 60 60 60 60 60 60 60 60 60 61 62 62 63 63 64 64 64 64 64 64 64 65 65 66 67 67 66 65 65 65 65 65 65 65 65 65 65 65 65 65 64 64 65 65 66 67 68 68 68 69 69 69 70 70 70 70 71 71 71 71 71 71 71 71 70 70 69 69 69 69 70 70 69
50 52 53 54 55 56 57 56 56 55 56 57 57 57 56 57 58 59 59 59 59 60 59 59 60 61 60 60 60 60 59 60 60 61 61 61 61 61 61 61 61 62 63 63 64 64 64 64 64 64 64 65 65 65 66 66 66 66 65 65 65 64 64 64 65 65 65 65 65 65 65 64 64 64 65 66 67 68 68 68 68 69 69 70 70 70 70 70 71 71 71 71 71 71 71 70 70 70 70 70 70 69 69
48 50 51 52 53 54 55 55 55 55 56 57 56 56 56 57 57 57 58 58 59 59 59 59 60 61 60 60 60 61 61 61 61 61 61 61 61 61 61 61 62 62 63 63 63 64 64 64 64 64 65 65 64 64 65 65 66 66 66 66 65 65 65 65 65 65 65 66 66 65 65 64 64 64 64 65 66 66 67 67 67 68 68 69 69 69 70 70 70 70 71 71 71 71 71 71 70 70 70 70 69 69 69
45 46 49 50 51 52 53 54 55 55 56 56 56 56 56 56 56 56 56 57 58 58 58 58 59 60 61 61 61 62 62 62 61 60 60 60 60 60 60 61 61 61 62 62 63 63 63 63 63 64 64 64 64 64 64 64 65 65 66 66 66 66 65 65 66 66 66 66 66 65 65 64 64 64 64 64 64 65 65 65 66 67 68 68 69 69 69 69 70 70 70 70 70 70 70 71 70 70 70 69 69 69 69
43 44 45 47 49 50 51 53 54 55 56 56 56 56 56 56 55 55 55 56 57 58 58 58 59 60 60 61 61 62 62 61 61 60 59 59 59 59 59 60 60 61 61 62 62 63 62 63 63 63 63 64 64 64 64 64 64 64 65 65 65 65 65 66 66 66 65 65 65 65 65 65 64 64 64 64 64 64 64 64 65 65 66 67 68 69 69 69 69 70 70 70 70 70 70 70 70 70 70 69 69 69 69
42 43 44 45 46 48 49 51 52 54 54 56 56 56 56 55 55 55 55 55 56 57 58 57 58 59 60 60 61 61 61 61 61 60 59 59 59 59 59 59 60 61 61 61 62 62 62 62 63 63 63 63 63 64 63 63 64 64 64 64 64 64 65 65 65 65 65 65 65 65 65 65 65 64 64 64 63 63 63 63 64 64 65 67 68 68 69 69 69 69 70 70 70 70 70 70 70 70 70 69 69 69 68
41 42 42 43 45 46 48 50 51 52 53 54 55 56 56 56 55 55 56 56 56 56 57 56 57 58 59 60 60 60 60 60 60 60 60 60 59 59 60 60 59 59 60 60 60 60 61 62 62 63 63 63 63 63 63 63 63 63 63 63 64 64 64 64 64 64 64 64 64 64 64 64 65 65 64 64 64 64 63 63 64 64 65 66 67 68 68 68 69 69 69 69 70 70 70 70 70 70 70 69 69 69 68
41 41 42 43 44 45 45 48 50 51 52 53 54 55 55 56 56 56 56 56 56 56 57 57 57 57 58 59 59 59 59 59 59 59 59 58 58 58 58 59 59 59 59 59 59 59 60 61 62 62 62 63 63 63 63 63 63 63 63 63 63 63 63 63 63 63 64 64 64 64 64 64 64 64 64 64 64 64 64 64 64 64 64 65 66 67 68 68 68 68 69 69 70 70 70 70 70 70 69 69 69 69 69
41 41 41 42 43 44 44 46 48 49 50 51 53 54 55 56 56 56 56 56 56 55 56 58 58 58 58 58 58 58 58 59 59 59 59 58 57 55 53 54 55 56 57 59 59 59 60 61 61 61 62 62 62 62 62 62 62 63 63 63 63 63 63 63 63 63 63 63 63 63 63 63 63 64 64 64 64 64 64 65 65 65 64 65 65 66 67 67 67 68 68 69 70 70 70 70 70 70 69 69 69 69 69
40 41 41 42 42 43 43 45 46 48 49 50 51 53 54 55 56 56 56 55 55 55 56 57 57 58 57 58 57 56 56 57 58 58 58 57 55 54 50 50 51 52 52 55 57 59 60 60 61 61 61 61 60 60 60 60 61 62 62 62 62 62 62 63 63 63 63 63 63 63 63 63 63 63 64 64 64 64 64 64 65 65 65 65 65 65 65 66 66 67 68 68 69 70 70 70 70 69 69 69 69 69 69
39 40 41 42 42 43 43 44 45 47 48 50 51 52 54 55 56 56 55 54 54 55 55 55 56 56 57 56 54 53 54 56 57 56 55 54 53 52 51 50 50 50 50 51 53 55 59 60 60 60 60 60 60 60 60 60 61 61 62 62 62 62 62 62 62 62 62 62 62 63 63 63 63 63 63 63 63 63 64 64 64 64 64 64 64 64 64 65 65 66 67 68 68 69 69 69 69 69 69 69 69 69 69
38 40 41 42 42 43 44 45 45 46 48 49 50 51 53 54 54 55 54 53 53 54 54 55 54 54 55 55 53 52 53 55 56 56 55 52 51 53 54 51 49 47 48 49 50 52 56 58 59 59 60 60 60 60 60 60 61 61 61 61 61 61 61 62 62 62 62 62 62 62 62 63 63 63 63 63 63 63 63 64 64 64 64 64 64 63 63 63 63 64 65 67 68 68 68 68 68 69 69 69 69 69 68
37 39 40 41 41 43 44 45 45 46 47 48 49 50 51 52 54 54 54 53 53 53 54 55 54 51 50 51 51 52 53 55 55 54 55 52 50 51 54 50 47 46 47 46 46 47 48 49 50 53 57 58 59 59 59 60 60 60 60 60 61 61 61 62 62 62 62 62 62 62 62 63 63 63 63 63 63 63 63 63 63 63 63 64 63 63 63 62 62 62 63 64 66 67 67 68 68 68 68 68 68 68 68
37 38 39 40 41 42 44 45 45 46 47 48 49 50 51 52 53 54 54 54 53 54 54 54 53 50 49 48 48 49 49 54 55 54 51 51 51 50 50 49 48 49 52 49 45 43 43 44 46 49 52 56 57 58 59 59 59 59 60 60 60 60 61 61 61 62 61 61 62 62 62 62 63 63 63 63 63 63 63 63 63 63 63 63 63 63 63 62 62 61 61 62 63 64 66 67 68 68 68 68 68 68 68
36 37 38 39 41 42 43 45 45 45 45 47 49 50 50 51 52 52 53 54 54 54 54 54 53 51 49 47 48 48 46 51 54 55 53 50 51 52 50 50 49 49 49 48 46 44 44 47 50 53 54 55 55 56 58 59 59 59 59 60 60 60 60 61 61 61 61 61 61 62 62 62 62 62 62 63 63 63 62 62 62 62 62 62 62 63 62 62 62 61 61 61 61 62 64 67 68 68 68 68 68 68 68
36 37 37 39 40 41 43 44 45 45 45 47 48 48 49 50 51 52 53 53 53 53 53 53 52 51 49 47 46 46 45 46 49 53 54 52 51 51 51 50 47 45 42 44 45 45 45 49 50 50 50 51 52 54 55 56 56 57 58 59 60 60 60 61 61 61 61 61 61 61 61 62 62 62 62 62 62 62 62 62 61 61 61 61 62 62 62 62 62 63 62 62 61 61 62 65 67 68 68 68 68 68 68
36 36 37 38 39 41 43 44 45 45 45 46 47 47 48 50 52 53 54 54 53 52 52 53 52 51 49 47 46 45 44 45 48 52 54 54 53 51 48 50 49 47 45 44 44 45 45 45 45 46 47 48 50 52 54 54 54 55 57 57 57 58 59 60 60 61 61 61 61 61 61 61 61 61 61 62 62 62 61 61 61 60 60 61 61 62 62 62 62 63 63 63 62 62 61 63 65 67 68 68 68 68 68
35 36 36 37 39 41 42 44 45 45 46 47 47 48 49 50 51 53 54 54 54 53 51 51 51 51 49 48 46 45 44 43 45 47 52 52 52 51 49 47 47 48 48 47 47 47 47 45 45 45 45 46 48 50 52 53 54 55 56 55 55 55 57 59 59 60 60 61 61 61 61 61 61 61 61 61 61 61 61 60 60 60 60 60 60 61 62 62 62 62 63 63 62 62 61 63 65 66 67 68 68 68 68
35 36 36 37 38 40 41 42 44 45 46 47 48 48 49 50 50 51 53 54 54 53 51 51 51 51 51 50 49 47 44 43 43 45 47 50 50 50 50 48 48 49 50 48 47 47 49 48 46 45 44 44 45 47 49 50 52 53 54 53 53 54 56 57 58 59 59 60 60 60 61 61 61 61 61 61 61 61 60 60 59 59 59 60 60 61 61 61 61 62 62 62 62 62 62 63 64 65 66 67 68 68 68
35 36 36 37 38 39 40 42 44 45 47 47 48 48 49 49 50 50 51 53 54 54 54 53 52 52 52 51 50 48 45 43 43 44 48 50 50 50 50 50 49 48 48 45 44 44 47 49 49 47 45 45 45 44 45 48 50 51 52 52 51 52 55 56 56 57 58 59 59 59 60 60 61 61 61 61 61 60 59 59 59 59 59 59 60 60 60 61 61 61 62 62 62 62 62 63 63 64 65 66 67 67 68
36 36 37 37 38 39 40 42 44 45 46 47 47 48 48 49 49 50 50 51 52 53 53 53 53 52 52 52 50 49 46 44 43 44 48 50 49 49 50 50 48 46 45 43 42 41 42 43 45 46 47 47 45 44 43 44 46 50 52 51 51 51 54 55 56 56 56 57 57 58 58 59 60 60 60 60 60 60 59 58 58 58 59 59 60 60 61 61 61 62 62 62 61 61 61 62 63 63 64 65 66 67 67